Bloomington, IN

1:19 AM EDT on March 27, 2017 (GMT -0400)
Monroe County

Weather History for KBMG - January, 2010

Change the Weather History Date:

Monday, January 4, 2010

  Actual Average Record
Temperature  
Mean Temperature 14 °F 29 °F  
Max Temperature 22 °F 38 °F 66 °F (1997)
Min Temperature 6 °F 21 °F -7 °F (1999)
Degree Days  
Heating Degree Days 51 36  
Month to date heating degree days 206 144  
Since 1 July heating degree days 2274 2217  
Cooling Degree Days 0 0  
Month to date cooling degree days 0 0  
Year to date cooling degree days 0 0  
Moisture  
Dew Point 6 °F    
Average Humidity 73    
Maximum Humidity 88    
Minimum Humidity 57    
Precipitation  
Precipitation T in 0.14 in 3.07 in (2004)
Month to date precipitation T 0.54  
Year to date precipitation T 0.54  
Sea Level Pressure  
Sea Level Pressure 30.28 in    
Wind  
Wind Speed 7 mph (WNW)    
Max Wind Speed 15 mph    
Max Gust Speed 20 mph    
Visibility 9 miles    
Events Snow    
T = Trace of Precipitation, MM = Missing Value Source: NWS Daily Summary

Daily Weather History Graph

Daily Weather History Graph

Search for Another Location

Airport or City:

Trip Planner

Search our weather history database for the weather conditions in past years. The results will help you decide how hot, cold, wet, or windy it might be!

Date:

Astronomy

Jan. 04, 2010 Rise Set
Actual Time 8:06 AM EST 5:37 PM EST
Civil Twilight 7:36 AM EST 6:06 PM EST
Nautical Twilight 7:02 AM EST 6:40 PM EST
Astronomical Twilight 6:30 AM EST 7:12 PM EST
Moon 10:40 PM EST (1/4) 10:38 AM EST (1/4)
Length of Visible Light 10h 30m
Length of Day
9h 30m
Waning Gibbous, 79% of the Moon is Illuminated
Jan 4
Waning Gibbous
Jan 7
Last Quarter
Jan 15
New
Jan 23
First Quarter
Jan 30
Full

Hourly Weather History & Observations

Time (EST) Temp. Windchill Dew Point Humidity Pressure Visibility Wind Dir Wind Speed Gust Speed Precip Events Conditions
12:53 AM 14.0 °F 6.5 °F 6.1 °F 71% 30.32 in 7.0 mi NW 4.6 mph - 0.00 in Snow Light Snow
1:53 AM 14.0 °F 3.9 °F 8.1 °F 77% 30.32 in 10.0 mi NW 6.9 mph - 0.00 in   Overcast
2:53 AM 12.9 °F 2.6 °F 8.1 °F 81% 30.32 in 10.0 mi WNW 6.9 mph - N/A   Overcast
3:53 AM 12.0 °F 4.1 °F 7.0 °F 80% 30.31 in 10.0 mi WNW 4.6 mph - N/A   Overcast
4:53 AM 10.0 °F 1.8 °F 6.1 °F 84% 30.30 in 10.0 mi WNW 4.6 mph - N/A   Scattered Clouds
5:53 AM 8.1 °F -0.5 °F 5.0 °F 87% 30.30 in 10.0 mi West 4.6 mph - N/A   Clear
6:53 AM 7.0 °F -4.5 °F 3.0 °F 84% 30.30 in 10.0 mi WNW 6.9 mph - N/A   Clear
7:53 AM 6.1 °F -0.9 °F 3.0 °F 87% 30.30 in 10.0 mi West 3.5 mph - N/A   Clear
8:53 AM 6.1 °F -4.3 °F 3.0 °F 87% 30.31 in 10.0 mi WNW 5.8 mph - N/A   Clear
9:35 AM 8.6 °F -2.6 °F 5.0 °F 85% 30.26 in 10.0 mi WNW 6.9 mph - N/A   Partly Cloudy
9:53 AM 9.0 °F -2.2 °F 5.0 °F 84% 30.31 in 10.0 mi Variable 6.9 mph - N/A   Partly Cloudy
10:53 AM 14.0 °F 2.0 °F 6.1 °F 71% 30.32 in 10.0 mi WNW 9.2 mph - N/A   Clear
11:53 AM 17.1 °F 5.8 °F 6.1 °F 62% 30.30 in 10.0 mi NW 9.2 mph - N/A   Clear
12:53 PM 18.0 °F 6.9 °F 7.0 °F 62% 30.27 in 10.0 mi NW 9.2 mph - N/A   Overcast
1:53 PM 19.9 °F 9.3 °F 8.1 °F 60% 30.25 in 10.0 mi WNW 9.2 mph - N/A   Overcast
2:53 PM 21.0 °F 9.3 °F 9.0 °F 60% 30.23 in 10.0 mi West 11.5 mph 17.3 mph N/A   Partly Cloudy
3:53 PM 21.0 °F 10.6 °F 9.0 °F 60% 30.24 in 10.0 mi NW 9.2 mph 18.4 mph N/A   Overcast
4:53 PM 19.0 °F 8.2 °F 9.0 °F 65% 30.24 in 10.0 mi WNW 9.2 mph 17.3 mph N/A   Mostly Cloudy
5:53 PM 18.0 °F 6.9 °F 9.0 °F 68% 30.25 in 10.0 mi WNW 9.2 mph - N/A   Overcast
6:53 PM 16.0 °F 6.3 °F 9.0 °F 74% 30.25 in 10.0 mi WNW 6.9 mph - N/A   Overcast
7:53 PM 15.1 °F 2.5 °F 8.1 °F 74% 30.27 in 10.0 mi WNW 10.4 mph - N/A   Overcast
8:53 PM 12.9 °F 1.6 °F 7.0 °F 77% 30.27 in 10.0 mi WNW 8.1 mph - N/A   Overcast
9:53 PM 12.0 °F 2.7 °F 6.1 °F 77% 30.27 in 10.0 mi WNW 5.8 mph - N/A   Overcast
10:53 PM 10.9 °F -1.8 °F 5.0 °F 77% 30.27 in 7.0 mi NW 9.2 mph - N/A   Overcast
11:16 PM 10.4 °F 4.0 °F 5.0 °F 79% 30.22 in 6.0 mi Variable 3.5 mph - N/A   Haze
11:53 PM 10.9 °F 0.2 °F 6.1 °F 81% 30.26 in 3.0 mi WNW 6.9 mph - 0.00 in Snow Light Snow